Wind_Speed
13 5 2 1 2 2 2 3 1 4 3 4 8 4 5 3 4 2 13 20 23 19 21 18 17 16 16 17 16 14 12 9 7 9 10 11 12 13 14 15 14 14 13 13 12 11 11 10 10
16 4 2 3 3 1 3 2 5 3 8 15 12 8 2 2 3 7 21 22 23 21 21 20 16 15 14 16 16 14 14 11 7 7 9 12 13 13 13 13 13 13 12 11 11 12 12 11 11
17 4 2 3 3 4 4 4 5 6 14 7 6 3 4 2 6 17 20 28 23 21 21 20 16 11 13 19 17 15 17 11 6 6 9 11 12 12 12 13 12 12 14 16 16 17 17 15 14
12 3 2 2 4 5 4 3 5 13 3 6 8 6 4 5 6 19 27 27 23 22 21 19 15 11 15 20 18 17 18 10 4 5 9 11 11 11 12 12 14 15 16 17 17 16 15 15 14
10 2 2 1 4 4 4 4 16 8 9 8 10 6 4 12 12 19 27 26 24 22 21 19 16 14 17 19 18 20 16 9 3 5 9 10 10 11 12 14 15 15 15 14 13 12 12 11 10
3 3 2 3 4 3 4 7 8 6 7 10 7 12 9 15 15 21 26 25 22 22 22 20 18 16 18 19 20 19 13 7 4 7 9 10 11 12 14 15 14 13 12 11 10 10 10 9 9
4 3 3 3 4 3 4 10 7 9 9 9 10 9 8 20 17 22 26 25 23 22 22 21 20 19 18 18 17 14 10 8 7 9 10 10 11 13 14 14 13 11 10 8 8 7 8 8 8
8 5 2 3 3 6 4 10 9 15 8 8 15 7 6 26 24 26 27 27 24 23 22 21 21 19 18 17 16 14 11 9 10 10 11 11 13 14 14 12 10 8 7 6 6 6 7 9 10
7 3 4 4 4 5 6 4 7 8 9 12 13 5 6 27 29 31 30 28 27 25 24 22 20 19 18 16 15 13 12 11 11 12 11 11 13 13 12 10 8 6 5 4 4 5 7 10 13
6 5 9 7 4 4 8 6 7 7 9 10 14 13 12 30 33 36 35 33 30 30 28 24 21 20 19 16 15 14 13 14 14 12 12 13 14 12 10 8 6 4 2 3 5 6 8 11 14
5 7 6 8 11 6 4 5 7 3 3 16 27 25 21 34 35 35 34 32 33 32 30 27 23 21 18 16 15 15 16 15 14 13 13 13 12 10 8 7 5 2 1 3 7 9 11 14 16
4 8 17 19 23 9 4 4 4 16 16 18 25 26 26 37 37 38 37 33 34 33 31 29 25 22 19 17 16 16 16 15 13 13 13 12 11 10 8 6 4 1 4 7 9 12 14 16 17
8 6 18 25 21 17 17 13 11 12 29 17 17 26 28 35 36 35 34 31 31 33 32 30 26 23 20 19 19 18 17 15 13 13 13 12 11 9 8 5 2 1 4 6 9 14 15 16 14
10 13 22 25 24 13 6 9 8 10 21 21 18 28 30 35 37 37 35 32 32 31 32 30 26 23 20 20 20 19 18 16 14 13 13 12 11 9 7 4 3 2 5 8 10 15 14 14 12
14 15 16 17 15 6 3 11 7 20 17 21 20 27 32 36 36 39 37 34 31 29 29 31 26 23 20 20 20 19 17 16 15 13 13 11 9 7 6 5 4 5 8 9 11 14 14 13 11
5 6 16 8 14 11 12 26 5 17 18 22 25 26 32 37 39 37 35 32 28 26 27 30 27 25 21 20 21 20 17 14 14 13 11 12 10 10 8 6 7 8 9 12 14 12 14 12 12
10 14 14 13 15 8 18 12 14 21 15 21 24 24 30 35 38 38 36 32 28 25 27 29 26 26 22 23 22 19 19 16 13 14 12 10 11 9 9 9 9 10 13 13 13 12 9 9 8
13 14 12 11 3 17 21 16 6 15 20 22 24 24 26 32 40 39 36 33 28 26 27 28 25 27 25 24 23 22 19 18 17 16 12 12 11 11 11 12 15 15 13 10 9 7 8 8 9
13 19 17 8 5 7 15 20 16 14 15 17 20 24 29 33 33 37 36 33 30 28 29 28 29 29 27 26 25 22 22 20 19 17 16 16 13 15 16 16 15 13 10 7 4 2 4 7 9
9 13 23 18 8 3 12 13 10 16 21 21 24 25 29 26 29 36 37 36 34 30 28 30 30 29 27 26 24 23 22 20 21 19 18 18 17 17 16 14 12 7 4 1 1 6 11 13 10
13 13 8 15 7 8 6 11 14 14 20 21 24 27 27 32 33 37 39 39 36 33 31 31 30 29 29 27 25 26 25 24 23 21 20 20 19 15 13 8 5 2 4 7 11 13 7 3 2
14 8 15 14 12 18 11 12 9 18 23 10 21 26 31 32 33 36 39 40 39 36 32 33 32 31 31 30 29 28 28 29 27 24 22 18 15 12 7 4 5 7 10 12 4 3 3 3 3
8 10 10 13 11 6 9 6 6 7 16 23 16 27 27 31 35 39 42 39 39 35 34 33 33 32 31 32 32 32 32 32 28 25 21 18 13 7 9 7 7 7 2 4 5 5 5 6 6
6 9 9 11 7 7 14 11 7 12 19 20 24 26 36 37 32 36 41 37 37 35 34 34 35 35 35 36 36 37 36 35 30 25 19 11 11 7 5 0 5 4 4 5 5 7 7 7 7
8 6 4 6 6 5 6 14 16 8 17 23 26 35 32 39 38 36 39 40 38 37 35 35 35 38 37 38 39 37 29 26 24 16 17 14 8 7 7 6 5 4 4 5 7 7 8 8 8
1 9 7 7 3 1 6 8 5 5 11 23 38 30 36 38 37 34 38 39 36 37 38 37 37 36 36 32 24 20 20 18 19 18 15 10 9 9 7 6 5 4 6 7 7 7 7 8 9
4 9 7 2 1 3 4 4 6 8 7 9 23 31 33 36 37 38 42 40 38 36 35 35 36 34 28 25 22 23 25 24 21 16 13 12 10 8 6 6 5 5 6 6 6 7 8 9 10
5 7 3 4 5 4 3 3 3 11 11 11 16 23 28 33 36 39 42 39 36 35 34 32 28 29 27 24 26 26 24 20 17 16 14 12 10 7 6 6 5 4 5 5 6 7 8 9 10
5 3 5 3 3 3 2 1 2 10 13 4 9 20 28 33 36 37 35 33 33 31 30 28 27 27 30 29 29 25 23 20 18 15 15 12 10 8 6 5 4 3 5 5 6 7 8 9 9
4 5 4 3 4 1 3 1 7 13 7 9 10 16 24 29 32 34 32 30 29 25 25 24 29 28 29 27 27 26 23 20 18 17 15 14 10 9 7 5 4 4 4 5 6 7 7 8 8
Wind_Direction
349 321 286 194 54 47 209 230 270 142 140 144 141 157 181 129 169 185 153 158 158 160 157 156 156 154 155 158 158 155 153 145 103 76 89 97 98 97 96 99 98 93 87 82 77 74 71 68 65
343 328 253 129 105 154 254 215 196 166 140 128 124 119 107 155 163 152 152 157 157 162 161 159 158 158 165 166 166 161 160 151 103 86 103 111 107 106 103 100 95 92 89 87 79 72 66 62 63
338 320 252 109 138 187 232 219 157 127 144 152 128 127 151 206 188 165 157 154 159 162 162 158 158 162 170 169 167 160 164 157 108 86 110 115 112 108 103 100 98 94 89 83 78 74 70 69 71
343 315 37 118 218 243 205 231 155 144 158 163 148 118 148 203 197 163 159 157 161 163 162 160 154 148 154 164 163 161 166 161 114 100 123 120 121 114 107 103 100 96 94 90 84 78 74 71 70
339 10 14 245 247 270 255 235 170 167 154 164 161 167 133 137 156 164 165 163 166 163 164 164 155 144 149 158 161 163 166 165 145 135 133 129 123 114 112 110 107 104 100 94 85 78 71 65 59
7 68 30 242 245 250 253 199 180 170 159 155 158 153 157 161 163 167 170 167 169 167 166 167 160 150 149 155 159 165 174 188 182 152 142 136 130 125 122 117 112 106 102 96 86 73 62 52 42
130 99 218 288 275 273 238 180 181 182 172 207 167 146 175 177 168 171 172 174 174 173 171 171 169 165 161 161 167 178 194 200 181 157 148 142 137 134 130 125 119 113 107 97 82 67 51 37 18
159 124 201 225 259 274 219 182 205 187 197 181 174 183 190 181 170 173 176 181 181 178 178 177 176 177 178 179 185 193 198 192 172 162 157 151 145 141 136 132 126 116 102 83 63 42 26 11 356
167 111 193 220 185 265 333 228 188 200 173 179 197 196 193 174 171 176 178 184 186 186 184 183 183 185 187 189 193 196 193 181 172 167 162 156 151 147 143 141 137 120 100 70 32 10 2 355 345
187 170 203 206 188 233 278 278 270 176 180 208 202 194 169 176 176 182 185 184 186 190 188 187 187 189 190 193 196 195 188 179 173 169 165 162 160 158 153 148 143 131 96 32 2 349 346 344 340
206 222 203 221 229 269 259 262 232 255 223 211 208 198 183 180 182 187 191 191 188 189 191 188 189 188 190 193 195 189 180 177 174 171 170 169 167 164 162 158 161 165 312 344 349 343 340 340 341
239 229 211 229 239 235 229 285 246 225 246 244 230 209 191 187 191 194 195 193 189 192 192 190 189 190 190 193 189 184 178 177 177 177 176 177 174 174 177 180 182 259 13 357 347 350 345 340 339
243 236 234 234 238 238 256 242 238 232 246 275 224 204 201 197 195 196 200 195 192 193 194 193 192 192 196 192 186 180 178 178 180 182 181 182 182 185 190 201 217 347 331 341 332 337 339 338 339
296 259 243 240 243 238 206 251 210 258 250 245 227 207 203 201 201 196 196 197 196 196 193 194 196 195 196 192 186 180 180 186 187 186 186 187 189 192 201 218 254 313 311 319 324 325 332 335 333
291 274 272 249 243 215 152 258 200 241 250 221 230 216 205 204 203 204 201 199 199 200 196 194 197 198 194 189 183 182 184 187 188 187 189 183 185 195 200 231 267 288 303 308 306 311 316 316 317
279 251 251 222 224 232 205 247 195 225 227 228 216 218 211 207 208 206 205 201 200 201 198 192 193 193 188 184 185 188 186 192 189 189 183 197 196 212 227 260 271 286 299 310 309 312 306 303 303
243 257 249 253 211 205 210 250 219 237 217 225 216 207 213 208 209 208 205 203 200 197 192 191 192 188 186 185 184 189 193 200 199 202 205 200 206 219 233 256 269 278 287 291 284 283 291 311 326
244 258 254 264 280 212 228 235 225 203 207 213 214 209 203 209 212 208 203 201 202 197 194 191 189 189 191 190 192 199 205 212 209 216 218 228 226 246 250 262 260 263 266 274 282 293 322 352 8
272 273 269 265 338 350 258 254 224 211 203 220 217 204 204 214 215 207 202 202 202 201 196 192 194 194 195 196 197 202 209 212 215 215 223 227 246 238 248 252 257 266 271 277 284 343 21 348 335
305 282 269 278 262 253 293 288 318 240 212 209 219 216 209 204 209 207 200 202 204 202 200 199 202 202 203 205 207 212 216 217 220 219 223 225 234 239 242 244 248 241 237 133 14 321 310 302 294
259 281 279 266 254 222 260 278 273 257 213 210 214 218 212 203 202 205 200 201 203 203 201 202 205 206 207 212 211 216 215 217 217 213 223 229 231 230 231 216 218 218 250 271 292 298 296 308 313
255 276 263 256 254 251 183 271 243 227 219 209 206 200 203 204 206 208 201 201 203 205 204 207 208 210 211 212 216 223 226 221 215 218 216 212 208 209 187 225 246 260 287 298 318 33 20 34 32
253 228 265 287 249 233 199 237 218 169 229 212 209 210 210 216 213 207 202 202 203 206 207 208 210 213 215 221 219 225 227 221 221 207 200 193 176 195 203 211 261 305 353 61 46 40 42 43 42
271 256 235 254 231 232 221 211 217 209 209 224 211 211 205 202 205 205 201 200 202 206 210 211 212 215 218 218 223 223 226 220 204 189 174 172 176 193 227 279 94 96 64 55 51 45 42 41 37
199 227 198 231 208 228 248 197 243 206 213 214 199 196 187 197 194 197 194 195 199 205 207 210 213 216 220 222 220 219 208 194 181 170 163 169 174 191 136 124 99 88 83 66 53 43 36 36 31
176 240 230 239 232 260 259 224 210 292 264 227 200 176 173 187 192 189 198 196 199 203 206 210 212 213 213 212 208 203 217 188 166 163 159 152 163 147 129 120 111 98 79 62 51 39 32 34 26
359 219 229 235 275 235 229 256 250 338 309 140 150 152 160 177 188 190 193 198 196 201 204 207 207 204 197 193 203 171 159 159 160 154 150 141 145 142 136 120 101 88 68 56 46 34 25 27 21
198 305 198 206 181 236 254 277 357 316 328 158 154 158 155 172 179 184 190 190 194 195 200 200 198 192 178 171 160 150 149 154 151 143 146 153 144 141 128 115 104 83 63 47 38 28 21 18 13
218 258 256 226 243 142 237 210 165 291 293 251 148 145 148 162 176 181 186 183 188 187 189 182 175 168 153 153 152 148 151 158 143 153 158 148 148 142 135 112 102 80 56 34 21 15 11 7 2
200 269 231 255 197 302 242 358 12 315 280 127 108 127 147 159 169 174 175 180 179 177 168 160 157 153 150 152 154 148 151 155 162 164 157 153 146 143 132 121 96 57 34 14 3 358 355 354 352
Height
1534 1533 1533 1533 1542 1541 1541 1536 1530 1532 1533 1534 1536 1538 1538 1539 1541 1547 1542 1545 1549 1553 1556 1559 1562 1564 1566 1568 1570 1572 1573 1574 1575 1575 1574 1575 1575 1576 1576 1576 1576 1577 1577 1577 1577 1577 1576 1576 1576
1534 1533 1533 1532 1543 1550 1541 1531 1530 1528 1530 1533 1535 1537 1538 1539 1539 1539 1542 1545 1549 1553 1556 1559 1561 1564 1566 1568 1570 1572 1574 1575 1575 1575 1575 1576 1576 1576 1577 1577 1578 1578 1578 1578 1578 1578 1577 1577 1577
1535 1533 1533 1534 1544 1546 1541 1528 1526 1529 1531 1531 1534 1536 1537 1538 1538 1540 1541 1544 1548 1552 1556 1559 1562 1564 1565 1567 1570 1572 1574 1575 1576 1576 1576 1577 1577 1578 1578 1578 1579 1579 1579 1579 1579 1579 1579 1578 1578
1535 1535 1535 1536 1540 1534 1530 1525 1524 1528 1530 1530 1531 1534 1537 1536 1537 1540 1542 1545 1549 1552 1556 1559 1562 1563 1564 1567 1570 1572 1574 1575 1576 1577 1577 1578 1578 1579 1579 1580 1580 1580 1580 1581 1581 1580 1580 1580 1579
1534 1534 1539 1540 1537 1530 1526 1524 1524 1526 1525 1528 1530 1533 1534 1535 1537 1540 1543 1546 1549 1552 1555 1559 1562 1563 1565 1568 1570 1572 1574 1575 1576 1577 1577 1578 1579 1579 1580 1580 1581 1581 1581 1582 1582 1582 1581 1581 1580
1534 1535 1544 1543 1535 1527 1524 1523 1524 1525 1525 1526 1529 1531 1533 1534 1536 1539 1543 1547 1550 1552 1555 1558 1562 1564 1565 1567 1570 1572 1574 1575 1576 1576 1577 1578 1579 1579 1580 1581 1582 1582 1582 1583 1583 1582 1582 1582 1581
1533 1537 1542 1540 1535 1527 1523 1521 1523 1523 1524 1524 1524 1529 1531 1532 1535 1538 1543 1547 1549 1552 1554 1557 1560 1563 1566 1568 1570 1572 1574 1575 1575 1576 1577 1579 1579 1580 1581 1582 1582 1583 1583 1584 1584 1583 1583 1583 1582
1529 1533 1539 1537 1535 1529 1519 1520 1519 1521 1522 1522 1524 1524 1526 1527 1531 1536 1541 1545 1549 1551 1554 1557 1559 1562 1565 1567 1569 1571 1572 1574 1575 1576 1577 1578 1579 1581 1582 1582 1583 1583 1584 1584 1584 1584 1583 1583 1582
1527 1534 1537 1533 1531 1525 1522 1520 1518 1518 1519 1520 1521 1520 1521 1524 1529 1534 1537 1542 1545 1550 1552 1555 1558 1561 1564 1566 1568 1570 1571 1573 1574 1576 1577 1578 1580 1581 1582 1583 1584 1584 1584 1584 1584 1584 1583 1582 1580
1523 1528 1528 1521 1521 1522 1520 1521 1520 1517 1517 1518 1517 1519 1520 1523 1525 1529 1532 1535 1541 1546 1549 1552 1556 1558 1561 1564 1566 1568 1570 1572 1573 1575 1577 1578 1580 1581 1582 1583 1583 1584 1584 1584 1584 1583 1582 1581 1579
1519 1517 1518 1516 1517 1518 1517 1515 1517 1518 1517 1509 1509 1515 1518 1520 1523 1527 1531 1534 1537 1542 1547 1550 1553 1556 1559 1561 1564 1567 1569 1571 1573 1575 1577 1578 1580 1581 1582 1583 1583 1583 1584 1584 1583 1582 1581 1580 1578
1517 1513 1512 1511 1511 1514 1514 1513 1512 1513 1510 1507 1506 1511 1514 1516 1518 1522 1526 1531 1535 1539 1543 1548 1551 1554 1556 1559 1562 1565 1568 1569 1572 1573 1575 1577 1579 1580 1581 1582 1582 1583 1583 1583 1583 1582 1580 1578 1577
1513 1510 1508 1508 1508 1508 1510 1510 1511 1506 1506 1508 1505 1507 1509 1513 1515 1520 1526 1529 1534 1536 1542 1546 1549 1552 1554 1556 1559 1562 1565 1568 1570 1572 1574 1576 1577 1579 1580 1581 1581 1581 1582 1582 1582 1581 1580 1578 1576
1509 1506 1505 1506 1506 1505 1506 1505 1506 1502 1501 1506 1505 1504 1505 1507 1511 1516 1521 1526 1530 1535 1538 1544 1548 1550 1553 1555 1558 1561 1563 1565 1568 1570 1572 1574 1576 1577 1579 1579 1580 1580 1581 1581 1580 1579 1578 1576 1575
1508 1507 1503 1503 1506 1502 1503 1500 1498 1499 1499 1498 1502 1505 1504 1504 1508 1511 1517 1521 1527 1532 1536 1540 1547 1550 1552 1555 1557 1560 1562 1563 1565 1567 1570 1572 1574 1576 1577 1578 1579 1580 1580 1579 1579 1577 1576 1574 1573
1509 1503 1500 1495 1498 1498 1503 1485 1492 1493 1494 1494 1495 1501 1503 1502 1504 1510 1516 1521 1525 1530 1534 1538 1542 1547 1551 1554 1556 1558 1561 1563 1565 1567 1568 1570 1572 1574 1576 1577 1578 1578 1579 1578 1577 1575 1573 1571 1570
1504 1494 1494 1493 1491 1494 1493 1483 1484 1489 1490 1491 1492 1495 1498 1501 1504 1508 1512 1520 1523 1528 1532 1536 1541 1544 1548 1551 1553 1557 1560 1562 1564 1567 1568 1569 1571 1573 1574 1575 1575 1575 1576 1575 1574 1572 1571 1569 1568
1502 1493 1489 1490 1490 1485 1482 1480 1483 1483 1486 1486 1490 1491 1494 1497 1497 1504 1510 1516 1523 1526 1530 1534 1539 1542 1545 1549 1552 1556 1558 1560 1562 1564 1567 1569 1570 1572 1572 1572 1571 1571 1570 1570 1570 1570 1570 1569 1567
1503 1497 1496 1494 1493 1493 1480 1476 1477 1480 1482 1483 1486 1486 1487 1492 1497 1501 1507 1515 1520 1524 1527 1531 1535 1539 1543 1546 1549 1553 1555 1558 1560 1562 1564 1566 1567 1568 1568 1568 1568 1567 1568 1568 1568 1569 1569 1568 1565
1506 1501 1491 1492 1494 1498 1491 1481 1481 1473 1470 1473 1480 1483 1483 1488 1492 1497 1501 1509 1515 1520 1525 1529 1531 1536 1540 1544 1548 1551 1554 1555 1557 1559 1561 1561 1563 1564 1564 1564 1564 1565 1564 1565 1566 1567 1567 1565 1563
1499 1500 1497 1496 1492 1490 1490 1481 1475 1469 1465 1466 1470 1475 1480 1481 1484 1491 1496 1503 1511 1515 1519 1525 1529 1533 1537 1541 1544 1547 1549 1552 1553 1554 1557 1558 1559 1559 1561 1561 1562 1564 1564 1563 1562 1563 1562 1561 1561
1497 1492 1492 1491 1489 1482 1483 1467 1462 1458 1455 1460 1464 1468 1472 1473 1483 1487 1491 1497 1505 1511 1515 1521 1525 1529 1533 1536 1539 1542 1544 1546 1548 1550 1552 1554 1555 1557 1559 1560 1560 1561 1562 1561 1559 1560 1561 1560 1559
1488 1487 1492 1492 1487 1483 1478 1478 1450 1448 1449 1449 1454 1459 1462 1467 1473 1480 1486 1493 1501 1508 1511 1517 1521 1525 1528 1532 1535 1537 1539 1541 1543 1546 1548 1550 1553 1555 1555 1557 1558 1559 1559 1559 1559 1560 1560 1560 1559
1487 1488 1486 1488 1485 1471 1463 1466 1441 1438 1436 1444 1448 1452 1458 1463 1467 1476 1483 1490 1497 1503 1507 1512 1516 1520 1522 1526 1528 1531 1533 1535 1537 1541 1545 1548 1550 1554 1556 1555 1557 1558 1558 1558 1559 1559 1559 1558 1558
1483 1485 1475 1474 1461 1463 1447 1451 1422 1418 1421 1424 1432 1444 1450 1454 1462 1469 1477 1484 1489 1497 1502 1507 1511 1514 1518 1520 1522 1524 1526 1531 1533 1539 1543 1546 1549 1553 1553 1554 1556 1557 1557 1557 1557 1559 1558 1558 1558
1477 1478 1465 1459 1452 1451 1448 1431 1409 1423 1419 1413 1421 1432 1439 1450 1456 1459 1472 1479 1484 1491 1497 1501 1505 1509 1512 1515 1518 1519 1523 1533 1535 1540 1543 1545 1551 1553 1553 1555 1556 1557 1556 1555 1556 1557 1558 1556 1556
1472 1470 1462 1465 1464 1466 1440 1429 1412 1414 1413 1406 1418 1427 1434 1442 1449 1457 1466 1476 1479 1487 1492 1496 1499 1502 1506 1509 1515 1519 1524 1530 1537 1538 1542 1546 1551 1553 1554 1554 1557 1557 1556 1556 1556 1555 1556 1555 1554
1473 1470 1451 1454 1467 1455 1431 1424 1419 1433 1427 1415 1420 1426 1431 1439 1446 1455 1464 1469 1476 1481 1487 1492 1494 1498 1500 1508 1516 1519 1527 1533 1535 1539 1545 1546 1548 1553 1555 1555 1556 1558 1556 1557 1555 1554 1554 1553 1553
1468 1459 1452 1446 1449 1444 1434 1426 1439 1436 1431 1423 1423 1428 1430 1438 1445 1452 1463 1464 1473 1476 1484 1489 1497 1498 1501 1506 1513 1517 1525 1534 1535 1539 1544 1545 1547 1550 1554 1555 1556 1557 1556 1556 1555 1553 1553 1553 1553
1463 1457 1451 1438 1438 1434 1431 1423 1432 1431 1424 1424 1427 1430 1434 1440 1447 1451 1457 1466 1470 1478 1483 1490 1496 1502 1505 1510 1514 1515 1525 1532 1536 1539 1542 1544 1546 1548 1552 1554 1555 1555 1555 1555 1555 1554 1553 1553 1552